FW9229 Weather Reports


Display with metric or nautical units.
time (UTC)temp
F
wind
direction
speed
MPH
gust
MPH
rain 1hr
in
rain 24hr
in
rain mn
in
humidity
%
barometer
mb
20260905234540 97 0 0.0 8.0 0.00 0.00 0.00 43 1011.0
20260905234018 97 212 3.0 8.0 0.00 0.00 0.00 42 1011.0
20260905233518 97 0 0.0 4.0 0.00 0.00 0.00 42 1011.0
20260905233035 98 0 0.0 5.0 0.00 0.00 0.00 41 1011.0
20260905232521 98 189 1.0 5.0 0.00 0.00 0.00 40 1010.9
20260905232020 98 159 1.0 10.0 0.00 0.00 0.00 41 1011.0
20260905231538 98 170 2.0 10.0 0.00 0.00 0.00 41 1011.1
20260905231020 99 122 1.0 4.0 0.00 0.00 0.00 40 1011.1
20260905230519 99 149 0.0 5.0 0.00 0.00 0.00 40 1011.3
20260905230036 99 159 1.0 5.0 0.00 0.00 0.00 40 1011.0
20260905225520 98 0 0.0 5.0 0.00 0.00 0.00 40 1010.9
20260905225019 99 0 0.0 4.0 0.00 0.00 0.00 39 1011.0
20260905224540 99 100 1.0 4.0 0.00 0.00 0.00 39 1010.9
20260905224019 99 0 0.0 4.0 0.00 0.00 0.00 39 1010.7
20260905223519 99 100 1.0 5.0 0.00 0.00 0.00 39 1010.9
20260905223040 100 0 0.0 6.0 0.00 0.00 0.00 37 1010.9
20260905222520 99 208 1.0 6.0 0.00 0.00 0.00 39 1010.9
20260905222019 101 216 0.0 5.0 0.00 0.00 0.00 36 1010.9
20260905221538 102 0 1.0 5.0 0.00 0.00 0.00 36 1010.9
20260905221021 103 170 1.0 5.0 0.00 0.00 0.00 35 1010.9
20260905220522 104 0 0.0 3.0 0.00 0.00 0.00 36 1011.0
20260905220035 103 0 0.0 7.0 0.00 0.00 0.00 36 1011.0
20260905215519 103 135 1.0 7.0 0.00 0.00 0.00 37 1011.1
20260905215016 101 0 0.0 4.0 0.00 0.00 0.00 38 1011.1
20260905214538 101 0 0.0 7.0 0.00 0.00 0.00 37 1011.2
20260905214020 101 0 1.0 7.0 0.00 0.00 0.00 38 1011.2
20260905213518 103 206 1.0 8.0 0.00 0.00 0.00 37 1011.3
20260905213043 102 0 0.0 8.0 0.00 0.00 0.00 37 1011.3
20260905212519 100 214 1.0 8.0 0.00 0.00 0.00 39 1011.3
20260905212023 100 214 2.0 8.0 0.00 0.00 0.00 38 1011.4
20260905211534 100 0 0.0 4.0 0.00 0.00 0.00 39 1011.5
20260905211019 100 0 0.0 4.0 0.00 0.00 0.00 40 1011.6
20260905210519 98 0 0.0 5.0 0.00 0.00 0.00 40 1011.7
20260905210044 99 161 0.0 5.0 0.00 0.00 0.00 41 1011.9
20260905205517 98 0 0.0 3.0 0.00 0.00 0.00 41 1011.9
20260905205020 101 0 1.0 3.0 0.00 0.00 0.00 38 1012.0
20260905204537 101 0 0.0 5.0 0.00 0.00 0.00 40 1012.0
20260905204019 100 0 1.0 5.0 0.00 0.00 0.00 40 1012.0
20260905203519 100 105 0.0 6.0 0.00 0.00 0.00 41 1012.1
20260905203038 99 105 1.0 6.0 0.00 0.00 0.00 42 1012.1
20260905202520 99 0 0.0 4.0 0.00 0.00 0.00 42 1012.2
20260905202020 99 0 1.0 5.0 0.00 0.00 0.00 42 1012.3
20260905201540 99 0 2.0 5.0 0.00 0.00 0.00 42 1012.3
20260905201017 98 121 0.0 4.0 0.00 0.00 0.00 43 1012.3
20260905200517 98 0 1.0 4.0 0.00 0.00 0.00 44 1012.4
20260905200044 97 122 0.0 4.0 0.00 0.00 0.00 44 1012.5
20260905195517 97 0 0.0 5.0 0.00 0.00 0.00 43 1012.5
20260905195020 98 196 2.0 5.0 0.00 0.00 0.00 43 1012.6
20260905194539 99 0 0.0 6.0 0.00 0.00 0.00 42 1012.7
20260905194018 99 71 2.0 6.0 0.00 0.00 0.00 42 1012.7
20260905193519 99 129 1.0 5.0 0.00 0.00 0.00 42 1012.7
20260905193035 99 57 1.0 5.0 0.00 0.00 0.00 43 1012.8
20260905192520 98 47 0.0 6.0 0.00 0.00 0.00 43 1012.9
20260905192024 97 0 2.0 7.0 0.00 0.00 0.00 43 1012.8
20260905191539 97 228 1.0 7.0 0.00 0.00 0.00 43 1013.1
20260905191020 97 0 0.0 5.0 0.00 0.00 0.00 43 1013.3
20260905190520 98 0 0.0 5.0 0.00 0.00 0.00 43 1013.3
20260905190038 98 164 1.0 6.0 0.00 0.00 0.00 42 1013.5
20260905185518 98 156 1.0 6.0 0.00 0.00 0.00 43 1013.6
20260905185019 97 0 1.0 5.0 0.00 0.00 0.00 43 1013.6
20260905184558 97 218 1.0 5.0 0.00 0.00 0.00 44 1013.6
20260905184025 96 219 0.0 8.0 0.00 0.00 0.00 45 1013.6
20260905183524 96 219 3.0 9.0 0.00 0.00 0.00 44 1013.6
20260905183041 97 213 4.0 9.0 0.00 0.00 0.00 44 1013.8
20260905182520 97 0 0.0 4.0 0.00 0.00 0.00 44 1013.8
20260905182020 96 63 0.0 5.0 0.00 0.00 0.00 46 1013.8
20260905181538 97 0 1.0 8.0 0.00 0.00 0.00 45 1013.9
20260905181017 96 126 1.0 9.0 0.00 0.00 0.00 46 1014.0
20260905180518 96 218 4.0 9.0 0.00 0.00 0.00 45 1014.1
20260905180038 97 160 2.0 8.0 0.00 0.00 0.00 45 1014.3
20260905175518 96 191 1.0 8.0 0.00 0.00 0.00 48 1014.3
20260905175019 96 339 2.0 8.0 0.00 0.00 0.00 47 1014.3
20260905174545 96 0 1.0 6.0 0.00 0.00 0.00 47 1014.5
20260905174020 97 133 1.0 5.0 0.00 0.00 0.00 47 1014.5
20260905173518 95 183 1.0 5.0 0.00 0.00 0.00 48 1014.5
20260905173041 95 81 0.0 4.0 0.00 0.00 0.00 49 1014.6
20260905172521 95 0 1.0 5.0 0.00 0.00 0.00 50 1014.5
20260905172020 93 180 2.0 5.0 0.00 0.00 0.00 52 1014.6
20260905171540 93 204 1.0 4.0 0.00 0.00 0.00 53 1014.7
20260905171022 93 204 1.0 4.0 0.00 0.00 0.00 53 1014.7
20260905170519 92 0 0.0 4.0 0.00 0.00 0.00 54 1014.7
20260905170039 92 220 0.0 7.0 0.00 0.00 0.00 54 1014.9
20260905165518 92 218 0.0 7.0 0.00 0.00 0.00 53 1014.9
20260905165018 93 0 1.0 8.0 0.00 0.00 0.00 54 1014.8
20260905164537 93 217 3.0 8.0 0.00 0.00 0.00 54 1014.7
20260905164018 93 199 0.0 3.0 0.00 0.00 0.00 53 1014.7
20260905163518 92 0 0.0 5.0 0.00 0.00 0.00 55 1014.6
20260905163050 91 201 2.0 5.0 0.00 0.00 0.00 56 1014.6
20260905162520 92 223 1.0 6.0 0.00 0.00 0.00 54 1014.7
20260905162019 93 199 1.0 6.0 0.00 0.00 0.00 54 1014.8
20260905161540 92 0 0.0 3.0 0.00 0.00 0.00 55 1014.7
20260905161020 92 0 0.0 3.0 0.00 0.00 0.00 56 1014.6
20260905160520 91 317 1.0 3.0 0.00 0.00 0.00 59 1014.7
20260905160048 91 0 0.0 5.0 0.00 0.00 0.00 58 1014.8
20260905155517 91 316 0.0 5.0 0.00 0.00 0.00 59 1014.7
20260905155016 91 315 0.0 3.0 0.00 0.00 0.00 58 1014.8
20260905154547 91 315 0.0 3.0 0.00 0.00 0.00 59 1014.7
20260905154018 90 317 1.0 3.0 0.00 0.00 0.00 60 1014.7
20260905153518 90 0 0.0 4.0 0.00 0.00 0.00 61 1014.6
20260905153038 89 317 0.0 5.0 0.00 0.00 0.00 62 1014.6
20260905152518 89 188 1.0 5.0 0.00 0.00 0.00 64 1014.7
20260905152020 88 236 0.0 4.0 0.00 0.00 0.00 64 1014.8
20260905151538 88 0 0.0 4.0 0.00 0.00 0.00 65 1014.7
20260905151022 87 206 1.0 4.0 0.00 0.00 0.00 66 1014.6
20260905150519 87 338 0.0 2.0 0.00 0.00 0.00 66 1014.6
20260905150041 87 0 0.0 5.0 0.00 0.00 0.00 66 1014.6
20260905145519 87 0 0.0 5.0 0.00 0.00 0.00 67 1014.6
20260905145021 86 0 0.0 4.0 0.00 0.00 0.00 68 1014.5
20260905144547 86 0 0.0 4.0 0.00 0.00 0.00 69 1014.5
20260905144019 86 218 0.0 5.0 0.00 0.00 0.00 69 1014.4
20260905143521 85 0 1.0 5.0 0.00 0.00 0.00 70 1014.4
20260905143038 85 206 0.0 4.0 0.00 0.00 0.00 71 1014.5
20260905142519 85 203 0.0 3.0 0.00 0.00 0.00 71 1014.5
20260905142022 84 0 0.0 2.0 0.00 0.00 0.00 71 1014.4
20260905141602 84 204 0.0 4.0 0.00 0.00 0.00 72 1014.6
20260905141018 84 0 0.0 4.0 0.00 0.00 0.00 72 1014.5
20260905140518 84 0 0.0 4.0 0.00 0.00 0.00 72 1014.5
20260905140053 84 0 0.0 6.0 0.00 0.00 0.00 73 1014.6
20260905135519 84 0 0.0 6.0 0.00 0.00 0.00 73 1014.5
20260905135019 83 0 0.0 2.0 0.00 0.00 0.00 73 1014.5
20260905134536 83 0 0.0 2.0 0.00 0.00 0.00 74 1014.4
20260905134017 83 0 0.0 2.0 0.00 0.00 0.00 74 1014.4
20260905133519 83 0 0.0 2.0 0.00 0.00 0.00 74 1014.3
20260905133050 83 0 0.0 4.0 0.00 0.00 0.00 74 1014.3
20260905132520 82 0 0.0 4.0 0.00 0.00 0.00 75 1014.2
20260905132020 82 0 0.0 0.0 0.00 0.00 0.00 76 1014.2
20260905131553 82 0 0.0 0.0 0.00 0.00 0.00 76 1014.2
20260905131021 82 0 0.0 0.0 0.00 0.00 0.00 77 1014.2
20260905130519 82 0 0.0 0.0 0.00 0.00 0.00 76 1014.2
20260905130039 81 0 0.0 4.0 0.00 0.00 0.00 76 1014.2
20260905125517 81 0 0.0 4.0 0.00 0.00 0.00 77 1014.1
20260905125020 81 0 0.0 0.0 0.00 0.00 0.00 77 1013.9
20260905124539 81 0 0.0 0.0 0.00 0.00 0.00 77 1013.8
20260905124019 80 0 0.0 2.0 0.00 0.00 0.00 78 1013.7
20260905123516 80 0 0.0 2.0 0.00 0.00 0.00 78 1013.7
20260905123037 80 217 0.0 0.0 0.00 0.00 0.00 78 1013.7
20260905122520 80 0 0.0 3.0 0.00 0.00 0.00 79 1013.7
20260905122019 80 0 0.0 3.0 0.00 0.00 0.00 79 1013.6
20260905121538 80 0 0.0 3.0 0.00 0.00 0.00 80 1013.6
20260905121023 79 0 0.0 1.0 0.00 0.00 0.00 80 1013.6
20260905120524 79 0 0.0 0.0 0.00 0.00 0.00 80 1013.7
20260905120038 79 0 0.0 0.0 0.00 0.00 0.00 79 1013.6
20260905115518 79 0 0.0 0.0 0.00 0.00 0.00 79 1013.8
20260905115020 79 0 0.0 0.0 0.00 0.00 0.00 79 1013.7
20260905114610 79 0 0.0 0.0 0.00 0.00 0.00 79 1013.5
20260905114019 79 0 0.0 0.0 0.00 0.00 0.00 79 1013.6
20260905113519 79 0 0.0 0.0 0.00 0.00 0.00 79 1013.6
20260905113037 79 0 0.0 0.0 0.00 0.00 0.00 78 1013.7
20260905112519 80 0 0.0 0.0 0.00 0.00 0.00 78 1013.7
20260905112020 80 0 0.0 0.0 0.00 0.00 0.00 78 1013.7
20260905111538 80 0 0.0 0.0 0.00 0.00 0.00 78 1013.7
20260905111018 80 0 0.0 0.0 0.00 0.00 0.00 78 1013.7
20260905110517 80 0 0.0 0.0 0.00 0.00 0.00 77 1013.7
20260905110038 80 0 0.0 0.0 0.00 0.00 0.00 77 1013.7
20260905105520 80 0 0.0 0.0 0.00 0.00 0.00 77 1013.7
20260905105019 80 0 0.0 0.0 0.00 0.00 0.00 76 1013.6
20260905104538 80 0 0.0 0.0 0.00 0.00 0.00 76 1013.6
20260905104018 80 0 0.0 0.0 0.00 0.00 0.00 76 1013.6
20260905103519 81 0 0.0 0.0 0.00 0.00 0.00 75 1013.6
20260905103041 81 0 0.0 0.0 0.00 0.00 0.00 75 1013.7
20260905102519 81 0 0.0 0.0 0.00 0.00 0.00 74 1013.7
20260905102019 81 0 0.0 0.0 0.00 0.00 0.00 73 1013.6
20260905101538 82 0 0.0 0.0 0.00 0.00 0.00 73 1013.6
20260905101018 82 0 0.0 5.0 0.00 0.00 0.00 72 1013.7
20260905100519 82 0 0.0 5.0 0.00 0.00 0.00 72 1013.5
20260905100057 82 0 0.0 5.0 0.00 0.00 0.00 72 1013.5
20260905095520 82 0 0.0 5.0 0.00 0.00 0.00 72 1013.4
20260905095020 82 215 0.0 4.0 0.00 0.00 0.00 72 1013.4
20260905094539 82 0 0.0 0.0 0.00 0.00 0.00 72 1013.4
20260905094019 82 0 0.0 2.0 0.00 0.00 0.00 72 1013.3
20260905093519 81 0 0.0 2.0 0.00 0.00 0.00 73 1013.3
20260905093039 81 0 0.0 2.0 0.00 0.00 0.00 73 1013.3
20260905092523 81 0 0.0 0.0 0.00 0.00 0.00 73 1013.3
20260905092022 81 0 0.0 0.0 0.00 0.00 0.00 73 1013.4
20260905091547 81 0 0.0 0.0 0.00 0.00 0.00 72 1013.4
20260905091020 81 0 0.0 0.0 0.00 0.00 0.00 72 1013.3
20260905090518 82 0 0.0 0.0 0.00 0.00 0.00 71 1013.3
20260905090035 82 0 0.0 0.0 0.00 0.00 0.00 71 1013.2
20260905085519 82 0 0.0 0.0 0.00 0.00 0.00 71 1013.2
20260905085021 82 0 0.0 0.0 0.00 0.00 0.00 70 1013.1
20260905084538 82 0 0.0 0.0 0.00 0.00 0.00 70 1012.9
20260905084020 82 0 0.0 0.0 0.00 0.00 0.00 70 1012.9
20260905083520 82 0 0.0 0.0 0.00 0.00 0.00 69 1012.9
20260905083038 82 0 0.0 0.0 0.00 0.00 0.00 70 1012.9
20260905082519 82 0 0.0 0.0 0.00 0.00 0.00 70 1012.8
20260905082019 83 0 0.0 0.0 0.00 0.00 0.00 69 1012.8
20260905081541 83 0 0.0 0.0 0.00 0.00 0.00 68 1012.9
20260905081019 83 0 0.0 0.0 0.00 0.00 0.00 68 1012.9
20260905080516 83 0 0.0 0.0 0.00 0.00 0.00 68 1012.8
20260905080039 83 0 0.0 3.0 0.00 0.00 0.00 68 1012.8
20260905075520 84 0 0.0 3.0 0.00 0.00 0.00 68 1012.9
20260905075018 84 0 0.0 1.0 0.00 0.00 0.00 68 1012.9
20260905074552 84 0 0.0 1.0 0.00 0.00 0.00 67 1013.0
20260905074022 84 0 0.0 2.0 0.00 0.00 0.00 67 1013.0
20260905073520 85 0 0.0 3.0 0.00 0.00 0.00 66 1013.1
20260905073057 85 0 0.0 3.0 0.00 0.00 0.00 65 1013.0
20260905072520 85 0 0.0 5.0 0.00 0.00 0.00 65 1013.2
20260905072019 85 0 1.0 5.0 0.00 0.00 0.00 65 1013.2
20260905071536 85 216 1.0 4.0 0.00 0.00 0.00 65 1013.3
20260905071018 85 0 1.0 4.0 0.00 0.00 0.00 65 1013.4
20260905070518 85 0 0.0 4.0 0.00 0.00 0.00 65 1013.3
20260905070040 86 0 0.0 3.0 0.00 0.00 0.00 65 1013.3
20260905065516 86 0 0.0 6.0 0.00 0.00 0.00 65 1013.4
20260905065024 86 0 1.0 7.0 0.00 0.00 0.00 65 1013.4
20260905064536 86 0 2.0 7.0 0.00 0.00 0.00 64 1013.5
20260905064020 86 195 1.0 6.0 0.00 0.00 0.00 64 1013.6
20260905063517 86 199 1.0 5.0 0.00 0.00 0.00 64 1013.6
20260905063040 86 0 0.0 7.0 0.00 0.00 0.00 65 1013.6
20260905062519 86 193 1.0 7.0 0.00 0.00 0.00 65 1013.6
20260905062021 86 218 1.0 5.0 0.00 0.00 0.00 65 1013.6
20260905061537 86 0 0.0 5.0 0.00 0.00 0.00 65 1013.6
20260905061020 86 0 0.0 5.0 0.00 0.00 0.00 65 1013.6
20260905060519 86 0 0.0 7.0 0.00 0.00 0.00 65 1013.7
20260905060035 86 206 1.0 7.0 0.00 0.00 0.00 65 1013.6
20260905055517 86 208 0.0 3.0 0.00 0.00 0.00 65 1013.6
20260905055021 86 0 0.0 0.0 0.00 0.00 0.00 65 1013.5
20260905054541 86 0 0.0 3.0 0.00 0.00 0.00 65 1013.5
20260905054020 86 0 0.0 3.0 0.00 0.00 0.00 66 1013.5
20260905053518 86 0 0.0 2.0 0.00 0.00 0.00 65 1013.5
20260905053037 86 0 0.0 2.0 0.00 0.00 0.00 64 1013.5
20260905052517 87 212 0.0 2.0 0.00 0.00 0.00 64 1013.4
20260905052020 87 0 0.0 2.0 0.00 0.00 0.00 64 1013.3
20260905051535 87 0 0.0 3.0 0.00 0.00 0.00 64 1013.2
20260905051017 87 0 0.0 3.0 0.00 0.00 0.00 63 1013.3
20260905050521 87 0 0.0 4.0 0.00 0.00 0.00 63 1013.4
20260905050040 87 212 0.0 5.0 0.00 0.00 0.00 62 1013.3
20260905045523 87 0 2.0 5.0 0.00 0.00 0.00 62 1013.4
20260905045018 87 0 0.0 4.0 0.00 0.00 0.00 62 1013.4
20260905044551 87 200 0.0 6.0 0.00 0.00 0.00 62 1013.4
20260905044021 88 0 0.0 6.0 0.00 0.00 0.00 62 1013.5
20260905043520 88 221 1.0 6.0 0.00 0.00 0.00 61 1013.4
20260905043037 88 0 1.0 7.0 0.00 0.00 0.00 61 1013.4
20260905042517 88 0 0.0 9.0 0.00 0.00 0.00 61 1013.3
20260905042020 88 216 2.0 9.0 0.00 0.00 0.00 60 1013.3
20260905041535 88 187 1.0 7.0 0.00 0.00 0.00 60 1013.3
20260905041048 88 0 1.0 9.0 0.00 0.00 0.00 59 1013.3
20260905040517 89 206 2.0 9.0 0.00 0.00 0.00 59 1013.4
20260905040048 89 242 1.0 9.0 0.00 0.00 0.00 58 1013.4
20260905035523 89 200 1.0 11.0 0.00 0.00 0.00 58 1013.4
20260905035019 89 248 2.0 11.0 0.00 0.00 0.00 58 1013.3
20260905034557 89 228 1.0 6.0 0.00 0.00 0.00 57 1013.3
20260905034020 89 177 1.0 7.0 0.00 0.00 0.00 56 1013.4
20260905033517 90 195 2.0 7.0 0.00 0.00 0.00 56 1013.4
20260905033059 90 222 2.0 7.0 0.00 0.00 0.00 56 1013.4
20260905032520 90 190 0.0 5.0 0.00 0.00 0.00 55 1013.4
20260905032020 90 210 2.0 6.0 0.00 0.00 0.00 54 1013.4
20260905031538 90 204 1.0 8.0 0.00 0.00 0.00 54 1013.5
20260905031020 90 198 2.0 8.0 0.00 0.00 0.00 54 1013.4
20260905030521 90 0 0.0 8.0 0.00 0.00 0.00 54 1013.3
20260905030037 91 0 2.0 6.0 0.00 0.00 0.00 54 1013.2
20260905025522 91 214 2.0 6.0 0.00 0.00 0.00 54 1013.2
20260905025022 91 214 2.0 6.0 0.00 0.00 0.00 54 1013.1
20260905024545 91 190 0.0 6.0 0.00 0.00 0.00 54 1013.0
20260905024024 91 178 0.0 7.0 0.00 0.00 0.00 54 1012.9
20260905023517 91 0 3.0 7.0 0.00 0.00 0.00 54 1013.0
20260905023116 91 0 0.0 7.0 0.00 0.00 0.00 54 1013.0
20260905022520 91 0 1.0 7.0 0.00 0.00 0.00 54 1012.9
20260905022020 91 216 0.0 8.0 0.00 0.00 0.00 54 1012.8
20260905021541 91 195 1.0 8.0 0.00 0.00 0.00 53 1012.7
20260905021017 91 0 0.0 8.0 0.00 0.00 0.00 54 1012.6
20260905020523 91 184 0.0 8.0 0.00 0.00 0.00 53 1012.5
20260905020041 91 0 0.0 3.0 0.00 0.00 0.00 53 1012.4
20260905015519 91 0 0.0 4.0 0.00 0.00 0.00 53 1012.3
20260905015022 91 187 0.0 4.0 0.00 0.00 0.00 52 1012.3
20260905014537 91 0 0.0 4.0 0.00 0.00 0.00 52 1012.2
20260905014020 91 0 1.0 7.0 0.00 0.00 0.00 52 1012.1
20260905013520 91 212 1.0 7.0 0.00 0.00 0.00 52 1012.0
20260905013038 92 0 1.0 4.0 0.00 0.00 0.00 52 1012.0
20260905012520 92 0 0.0 6.0 0.00 0.00 0.00 52 1012.0
20260905012020 92 179 1.0 7.0 0.00 0.00 0.00 51 1012.0
20260905011553 92 210 1.0 10.0 0.00 0.00 0.00 53 1011.9
20260905011020 93 226 3.0 10.0 0.00 0.00 0.00 51 1011.8
20260905010521 93 254 1.0 7.0 0.00 0.00 0.00 47 1011.8
20260905010043 93 160 1.0 7.0 0.00 0.00 0.00 47 1011.7
20260905005519 93 0 1.0 7.0 0.00 0.00 0.00 48 1011.7
20260905005019 94 0 0.0 7.0 0.00 0.00 0.00 47 1011.6
20260905004539 94 168 1.0 6.0 0.00 0.00 0.00 47 1011.6
20260905004021 94 0 1.0 7.0 0.00 0.00 0.00 47 1011.6
20260905003526 94 0 0.0 7.0 0.00 0.00 0.00 47 1011.7
20260905003042 94 96 1.0 6.0 0.00 0.00 0.00 46 1011.7
20260905002518 94 0 1.0 6.0 0.00 0.00 0.00 46 1011.6
20260905002018 94 200 1.0 5.0 0.00 0.00 0.00 45 1011.5
20260905001537 95 146 0.0 7.0 0.00 0.00 0.00 46 1011.4
20260905001020 95 0 2.0 7.0 0.00 0.00 0.00 46 1011.4
20260905000521 95 160 3.0 9.0 0.00 0.00 0.00 46 1011.3
20260905000042 95 216 1.0 11.0 0.00 0.00 0.00 46 1011.4
20260904235523 95 205 2.0 11.0 0.00 0.00 0.00 46 1011.4
20260904235021 95 120 2.0 8.0 0.00 0.00 0.00 46 1011.5